• Le Poker by Infinite Player


    En France !!!

    Viens jouer au poker dans ton spot

    favori : c'est en live, c'est 100% gratuit

    et c'est super convivial.

    Rejoins la famille Infinite Player ;)

  • Infinite Player

    Résultats

    Consultez vos

    classements

    et statistiques

  • Les soirées Poker Infinite Player

    Dans votre établissement ?

    Devenir

    établissement partenaire

    Que vous soyez un bowling, un bar, un restaurant,

    un escape-game, un hôtel, ou même une salle de billard

    vous pouvez très nettement augmenter votre clientèle de

    semaine en hébergeant facilement nos tournois, contactez-nous !

INFINITE PLAYER :

La seule Ligue 100% gratuite de poker en Suisse depuis 2015, et en France depuis 2020 !!!

Pour participer c’est très simple, connecte-toi à ton espace personnel, choisis le jour où tu veux jouer, inscris-toi, et c'est parti !

Selon ton classement et du nombre de joueurs, tu obtiens des points qui forment une moyenne et ainsi, à chaque fin de saison (4 mois), te donneront accès aux finales, toujours 100% gratuites, regroupant les meilleurs joueurs de la région et avec une superbe dotation !!

Auras-tu l’aplomb ? Seras-tu le prochain champion INFINITE PLAYER en remportant des tickets pour les plus grands tournois d’Europe ?

(Dont les fameux évènements de notre partenaire Winamax : le Winamax Poker Tour, le Winamax Poker Open et le Sismix)

SHUFFLE UP AND DEAL !!!

Dernières nouvelles

Le championnat Infinite Player du Q1 2022 se termine ce 30 avril 2022, plus qu'une semaine pour te qualifier !!

CLIQUE ICI POUR Y ACCEDER

Le classement Infinite Player du Q3 2021 dans la zone SUD est disponible.

CLIQUE ICI POUR Y ACCEDER

A jour au 30/12, prochaine mise à jour le 31/12.

Le classement Infinite Player du Q3 2021 en Rhône-Alpes est disponible.

CLIQUE ICI POUR Y ACCEDER

A jour au 30/12, prochaine mise à jour le 31/12.

Tu veux jouer avec nous Online et participer à nos divers championnats ? C'est par ici que ça se passe :

CLIQUE ICI POUR Y ACCEDER

LA SORTIE DU COVID APPROCHE !! On reprend enfin le Poker Live gratuit dans vos établissements favoris après cette longue période sans vous voir. En Juin c'est seulement les week-end (couvre-feu oblige) et dès Juillet retour à la normale. Par contre, le masque reste obligatoire et le 6-max imposé jusqu'à nouvel ordre.

DEPUIS 2015 EN SUISSE, NOUS VOICI ENFIN EN FRANCE !! Jouez au poker dans votre établissement favori : C'est en live, c'est 100% gratuit, et vous vous créez un cercle d'amis.

Nouveaux établissements

1 rue Gilbert Ménie,
MORTEAU (25500)

ZA Les Basseaux,
ETOILE-SUR-RHÔNE (26800)

Zone d'aménagement concerte Puits d'Ordet,
CHALLES-LES-EAUX (73190)

Tournois à venir

Ville

Établissement

Jour

Date / Heure de RDV
(start 30' après)

Inscriptions

202209261830 SAINT JULIEN EN GENEVOIS (74160) Le Saint Jus (Lundi) Lundi 26 septembre 18:30 8/18
202209261900 SILLINGY (74330) L'American Diner Lundi 26 septembre 19:00 9/32
202209261900 BESANCON (25000) Le Play Arena Lundi 26 septembre 19:00 18/27
202209261900 MONTPELLIER (34000) The Shakespeare Lundi 26 septembre 19:00 18/18 +1 intéressé
202209261900 CHAMBERY (73000) Le Brock Art Lundi 26 septembre 19:00 17/24
202209261900 BOURG-EN-BRESSE (01000) L'Ardoise Lundi 26 septembre 19:00 1/32
202209261900 VILLEURBANNE (69100) Le Bryan's Café Lundi 26 septembre 19:00 10/24
202209261930 THONON-LES-BAINS (74200) La Bodega Lundi 26 septembre 19:30 4/40
202209271830 SAINT JULIEN EN GENEVOIS (74160) Le Saint Jus (Mardi) Mardi 27 septembre 18:30 8/18
202209271900 RIORGES (42153) Le Bowling de Riorges (Mardi) Mardi 27 septembre 19:00 5/32
202209271900 CHALLES-LES-EAUX (73190) Le Bier Fest Mardi 27 septembre 19:00 6/24
202209271900 SCIONZIER (74950) Le BobbyBar Mardi 27 septembre 19:00 3/18
202209271900 NEZIGNAN-L'ÉVEQUE (34120) L'Eden Mardi 27 septembre 19:00 0/16
202209271900 SEYNOD (74600) Le Crazy Clock Mardi 27 septembre 19:00 1/24
202209271900 LAGNIEU (01150) La Grange (Mardi) Mardi 27 septembre 19:00 1/27
202209271900 GORREVOD (01190) Le Repère Mardi 27 septembre 19:00 4/27
202209271900 LYON (69002) The King Arthur Mardi 27 septembre 19:00 13/27
202209271900 NICE (06300) L'Akathor Mardi 27 septembre 19:00 13/27
202209281845 LE CANNET (06110) Le Mediterranée Mercredi 28 septembre 18:45 4/27
202209281845 CHATEAURENARD (13160) Le Café des Allées Mercredi 28 septembre 18:45 21/32
202209281900 PORTE-LES-VALENCE (26800) Le Code Bar Mercredi 28 septembre 19:00 6/24
202209281900 ANNEMASSE (74100) Le Little Rock Mercredi 28 septembre 19:00 15/27
202209281900 LAGNIEU (01150) La Grange (Mercredi) Mercredi 28 septembre 19:00 2/81
202209281900 HYERES (83400) Le People Mercredi 28 septembre 19:00 2/24
202209281900 SAINT-VALLIER (71230) Le Chant du Coq Mercredi 28 septembre 19:00 0/24
202209281900 THONON-LES-BAINS (74200) O'CodeBar Mercredi 28 septembre 19:00 1/18
202209281900 ANNECY (74000) Le Bowl Mercredi 28 septembre 19:00 4/32
202209281900 SAINT-PIERRE-D'ALBIGNY (73250) Le Miolans (mercredi) Mercredi 28 septembre 19:00 7/36
202209281900 SALAISE-SUR-SANNE (38150) Le Cargo Mercredi 28 septembre 19:00 1/24
202209281900 VILLEFRANCHE-SUR-SAÔNE (69400) Le Wynwood Mercredi 28 septembre 19:00 20/32
202209281930 MORTEAU (25500) Le Cosy Café Mercredi 28 septembre 19:30 6/32
202209281930 CONTAMINES-MONTJOIE (74170) Le Freddy's Mercredi 28 septembre 19:30 6/32
202209281930 CESSY (01170) Le Cadence Café Mercredi 28 septembre 19:30 2/27
202209291830 JONQUIERES (84150) Le Brusco Jeudi 29 septembre 18:30 18/18 +3 intéressés
202209291900 BELLEVILLE (69220) L'Original Bar Jeudi 29 septembre 19:00 5/24
202209291900 CHÂTILLON SAINT JEAN (26750) Le M Jeudi 29 septembre 19:00 3/36
202209291900 NICE (06000) Le Kind & Co. Jeudi 29 septembre 19:00 8/18
202209291900 TOULON (83000) Les Aludes Jeudi 29 septembre 19:00 2/24
202209291900 SAINT-GERVAIS-LES-BAINS (74170) Le BJ'S Café Jeudi 29 septembre 19:00 2/16
202209291900 FILLINGES (74250) L'Hôtel Campanile Jeudi 29 septembre 19:00 5/18
202209291900 GRILLY (01220) L'Echappée Belle Jeudi 29 septembre 19:00 0/18
202209291900 BESANCON (25000) Le Fontaine Argent Jeudi 29 septembre 19:00 6/24
202209291900 RIORGES (42153) Le Bowling de Riorges (Jeudi) Jeudi 29 septembre 19:00 5/24
202209291900 GRESY-SUR-AIX (73100) L'Envie Jeudi 29 septembre 19:00 5/24
202209291900 BOURG-EN-BRESSE (01000) Le 1055 Jeudi 29 septembre 19:00 3/27
202209291900 THONON-LES-BAINS (74200) Le Café du Palais Jeudi 29 septembre 19:00 2/36
202209292000 TOURNUS (71700) Le Carnot Jeudi 29 septembre 20:00 2/18
202209301900 CLERMONT-L'HERAULT (34800) Le Air Soccer 5 Vendredi 30 septembre 19:00 4/24
202209301900 SAINT-PIERRE-D'ALBIGNY (73250) Le Miolans (vendredi) Vendredi 30 septembre 19:00 9/36
202209301900 ANDREZIEUX (42160) Le Club 42 Vendredi 30 septembre 19:00 3/18
202209301900 PONT-DU-CHATEAU (63430) Le Player 63 Vendredi 30 septembre 19:00 3/32
202209301930 ANNEMASSE (74100) Le Madness Beear Vendredi 30 septembre 19:30 7/36
202210021000 TOULON (83000) Les Aludes Dimanche 02 octobre 10:00 Finale Q2 2022 SUD
202210021700 MONTPELLIER (34000) My Beers (Montpellier) Dimanche 02 octobre 17:00 9/27
202210021730 ARLES (13200) My Beers (Arles) Dimanche 02 octobre 17:30 9/27
202210021745 LE THOR (84250) My Beers (Isle sur Sorgue) Dimanche 02 octobre 17:45 17/27
202210021830 ROQUEBRUNE-SUR-ARGENS (83520) La Bonne Etoile Dimanche 02 octobre 18:30 31/32
202210021830 ANNEMASSE (74100) Le Little Rock (Dimanche) Dimanche 02 octobre 18:30 26/40
202210021900 NICE (06000) Le Latino Son Dimanche 02 octobre 19:00 4/24
202210031830 SAINT JULIEN EN GENEVOIS (74160) Le Saint Jus (Lundi) Lundi 03 octobre 18:30 2/18
202210031900 BESANCON (25000) Le Play Arena Lundi 03 octobre 19:00 6/27
202210031900 SILLINGY (74330) L'American Diner Lundi 03 octobre 19:00 2/32
202210031900 CHAMBERY (73000) Le Brock Art Lundi 03 octobre 19:00 1/24
202210031900 MONTPELLIER (34000) The Shakespeare Lundi 03 octobre 19:00 8/18
202210031900 BOURG-EN-BRESSE (01000) L'Ardoise Lundi 03 octobre 19:00 0/32
202210031900 VILLEURBANNE (69100) Le Bryan's Café Lundi 03 octobre 19:00 2/24
202210031930 THONON-LES-BAINS (74200) La Bodega Lundi 03 octobre 19:30 0/40
202210041830 SAINT JULIEN EN GENEVOIS (74160) Le Saint Jus (Mardi) Mardi 04 octobre 18:30 4/18
202210041900 BORMES-LES-MIMOSAS (83230) Le Basioburger Mardi 04 octobre 19:00 3/24
202210041900 NEZIGNAN-L'ÉVEQUE (34120) L'Eden Mardi 04 octobre 19:00 0/16
202210041900 GORREVOD (01190) Le Repère Mardi 04 octobre 19:00 0/27
202210041900 NICE (06300) L'Akathor Mardi 04 octobre 19:00 6/27
202210041900 SCIONZIER (74950) Le BobbyBar Mardi 04 octobre 19:00 0/18
202210041900 LYON (69002) The King Arthur Mardi 04 octobre 19:00 4/27
202210041900 SEYNOD (74600) Le Crazy Clock Mardi 04 octobre 19:00 0/24
202210041900 RIORGES (42153) Le Bowling de Riorges (Mardi) Mardi 04 octobre 19:00 2/32
202210041900 LAGNIEU (01150) La Grange (Mardi) Mardi 04 octobre 19:00 0/27
202210041900 CHALLES-LES-EAUX (73190) Le Bier Fest Mardi 04 octobre 19:00 1/24
202210051845 CHATEAURENARD (13160) Le Café des Allées Mercredi 05 octobre 18:45 7/32
202210051845 LE CANNET (06110) Le Mediterranée Mercredi 05 octobre 18:45 2/27
202210051900 PORTE-LES-VALENCE (26800) Le Code Bar Mercredi 05 octobre 19:00 0/24
202210051900 HYERES (83400) Le People Mercredi 05 octobre 19:00 0/24
202210051900 SAINT-VALLIER (71230) Le Chant du Coq Mercredi 05 octobre 19:00 0/24
202210051900 ANNEMASSE (74100) Le Little Rock Mercredi 05 octobre 19:00 1/27
202210051900 ANNECY (74000) Le Bowl Mercredi 05 octobre 19:00 0/32
202210051900 SAINT-PIERRE-D'ALBIGNY (73250) Le Miolans (mercredi) Mercredi 05 octobre 19:00 2/36
202210051900 VILLEFRANCHE-SUR-SAÔNE (69400) Le Wynwood Mercredi 05 octobre 19:00 7/32
202210051900 THONON-LES-BAINS (74200) O'CodeBar Mercredi 05 octobre 19:00 0/18
202210051900 SALAISE-SUR-SANNE (38150) Le Cargo Mercredi 05 octobre 19:00 0/24
202210051900 LAGNIEU (01150) La Grange (Mercredi) Mercredi 05 octobre 19:00 1/81
202210051930 MORTEAU (25500) Le Cosy Café Mercredi 05 octobre 19:30 1/32
202210051930 CONTAMINES-MONTJOIE (74170) Le Freddy's Mercredi 05 octobre 19:30 0/32
202210051930 CESSY (01170) Le Cadence Café Mercredi 05 octobre 19:30 2/27
202210061830 JONQUIERES (84150) Le Brusco Jeudi 06 octobre 18:30 12/18
202210061900 RIORGES (42153) Le Bowling de Riorges (Jeudi) Jeudi 06 octobre 19:00 1/24
202210061900 TOULON (83000) Les Aludes Jeudi 06 octobre 19:00 0/24
202210061900 FILLINGES (74250) L'Hôtel Campanile Jeudi 06 octobre 19:00 2/18
202210061900 CHÂTILLON SAINT JEAN (26750) Le M Jeudi 06 octobre 19:00 1/36
202210061900 BESANCON (25000) Le Fontaine Argent Jeudi 06 octobre 19:00 1/24
202210061900 GRILLY (01220) L'Echappée Belle Jeudi 06 octobre 19:00 0/18
Page sur

Devenir établissement partenaire

INFINITE PLAYER vous propose bien plus qu'une prestationn, un véritable partenariat pour l'animation dans vos bars, restaurants, bowling… grâce à notre concept de poker 100% gratuit et, bien évidemment, 100% légal.

Notre ambition est d’aider nos établissements partenaires à renforcer la vie sociale et développer une communauté de leur lieu en proposant une animation moderne, tendance et régulière !


Une prestation 3 en 1, à moindres coûts !

  • Vous aider à dynamiser une ou plusieurs soirées creuses dans la semaine.

  • Vous apporter une nouvelle clientèle, la fidéliser rapidement et durablement.

  • Accroître votre notoriété et faire parler de votre établissement.


Pour cela, nous vous apportons :


Contactez nous


  • Email : contact@infiniteplayer.fr

Merci de saisir votre nom ou pseudo

Posez nous toutes vos questions

Merci, votre message a été envoyé avec succès.

Echec de l'envoi, veuillez verifier votre adresse mail.

Echec de l'envoi, veuillez verifier votre nom.

Echec de l'envoi, n'avez-vous pas oublié de taper votre message ?

Echec de l'envoi, une erreur est survenue